Location: Unspecified
(45.4615°N, 74.0512°W)
Time: 21:40:59
(UTC-05:00)

ISS - Visible Passes

Search period start: 13 December 2017 00:00
Search period end: 23 December 2017 00:00
Orbit: 403 x 407 km, 51.6° (Epoch: 14 December)

Date Brightness Start Highest point End Pass type
(mag) Time Alt. Az. Time Alt. Az. Time Alt. Az.
13 Dec -2.8 18:16:14 10° WNW 18:19:24 43° SW 18:19:54 40° S visible
14 Dec -3.7 17:23:56 10° WNW 17:27:14 77° SSW 17:30:30 10° SE visible
14 Dec -0.6 19:01:57 10° WSW 19:03:12 12° SW 19:03:21 12° SW visible
15 Dec -1.2 18:08:40 10° W 18:11:13 21° SW 18:13:44 10° S visible
16 Dec -2.1 17:16:04 10° WNW 17:19:07 35° SW 17:22:09 10° SSE visible
18 Dec -0.7 17:08:36 10° W 17:10:49 17° SW 17:13:01 10° S visible
